Simultaneous Nadir Overpasses (SNOs) Predictions

Prediction of SNOs between GOES-15 and METOP-B Satellite Orbit:

Table of predicted SNOs for the next 14.0 days since TLE Epoch: 12/14/2024
Index Date Time (GOES-15) GOES-15 Lat,Lon METOP-B Lat,Lon Distance(km) Time Diff (sec)
1 12/14/2024 17:13:44 0.12, 61.46 -0.03, 60.71 84.82 80
2 12/15/2024 16:50:30 0.12, 61.46 1.04, 65.68 480.01 80
3 12/17/2024 05:09:32 -0.11, 61.38 -0.01, 61.06 36.78 80
4 12/19/2024 17:10:48 0.10, 61.44 0.06, 61.38 8.64 80
5 12/22/2024 05:09:16 -0.09, 61.37 -0.14, 61.72 39.17 80
6 12/23/2024 17:28:27 0.08, 61.42 -0.88, 57.06 496.38 80
7 12/24/2024 17:05:13 0.08, 61.43 0.22, 62.03 68.27 80
8 12/26/2024 05:24:13 -0.07, 61.38 0.83, 57.42 452.03 80
9 12/27/2024 05:06:20 -0.08, 61.38 -0.28, 62.38 113.50 80
